WetterOnline ( https://www.wetteronline.de )

Wetter aktuell Schweinfurt

Aktuelles Wetter: Bad Kissingen (266m)

6-stündlich | Neueste Meldungen
Ortszeit Temperatur Wetter
Mi, 18.09. 8:00 5.8° C wolkenlos
Mi, 18.09. 2:00 10.0° C wolkenlos
Di, 17.09. 20:00 16.0° C bewölkt
Di, 17.09. 14:00 17.4° C leicht bewölkt
Di, 17.09. 8:00 12.1° C bedeckt
Di, 17.09. 2:00 14.7° C bedeckt
Mo, 16.09. 20:00 18.4° C bedeckt
Mo, 16.09. 14:00 19.9° C bedeckt
Ortszeit Temperatur Wetter
Mi, 18.09. 11:00 12.7° C wolkig
Mi, 18.09. 10:50 12.7° C bewölkt
Mi, 18.09. 10:40 12.9° C wolkig
Mi, 18.09. 10:30 12.1° C fast wolkenlos
Mi, 18.09. 10:20 12.1° C fast wolkenlos
Mi, 18.09. 10:10 12.1° C leicht bewölkt
Mi, 18.09. 10:00 10.8° C leicht bewölkt
Mi, 18.09. 9:30 9.1° C leicht bewölkt
Mi, 18.09. 9:00 7.8° C wolkenlos
Mi, 18.09. 8:30 6.2° C wolkenlos
Mi, 18.09. 8:00 5.8° C wolkenlos
Ortszeit Relative Feuchte Sichtweite
Mi, 18.09. 8:00 86% 30 km
Mi, 18.09. 2:00 66% 45 km
Di, 17.09. 20:00 47% 65 km
Di, 17.09. 14:00 45% 60 km
Di, 17.09. 8:00 78% 60 km
Di, 17.09. 2:00 84% >70 km
Mo, 16.09. 20:00 63% 65 km
Mo, 16.09. 14:00 54% 65 km
Ortszeit Relative Feuchte Sichtweite
Mi, 18.09. 11:00 60% 30 km
Mi, 18.09. 10:50 60% -
Mi, 18.09. 10:40 59% -
Mi, 18.09. 10:30 64% 50 km
Mi, 18.09. 10:20 64% -
Mi, 18.09. 10:10 63% -
Mi, 18.09. 10:00 66% 30 km
Mi, 18.09. 9:30 73% 40 km
Mi, 18.09. 9:00 80% 35 km
Mi, 18.09. 8:30 83% 30 km
Mi, 18.09. 8:00 86% 30 km
Ortszeit Niederschlagsmenge Niederschlagsart
Mi, 18.09. 8:00 0.0 l/m2 in 12 Std. -
Mi, 18.09. 2:00 0.0 l/m2 in 6 Std. -
Di, 17.09. 20:00 0.0 l/m2 in 12 Std. -
Di, 17.09. 14:00 0.0 l/m2 in 6 Std. -
Di, 17.09. 8:00 0.0 l/m2 in 12 Std. -
Di, 17.09. 2:00 0.0 l/m2 in 6 Std. -
Mo, 16.09. 20:00 0.1 l/m2 in 12 Std. Regen
Mo, 16.09. 14:00 0.0 l/m2 in 6 Std. -
Ortszeit Niederschlagsmenge Niederschlagsart
Mi, 18.09. 11:00 0.0 l/m2 in 1 Std. -
Mi, 18.09. 10:50 keine Meldung -
Mi, 18.09. 10:40 keine Meldung -
Mi, 18.09. 10:30 0.0 l/m2 in 1 Std. -
Mi, 18.09. 10:20 keine Meldung -
Mi, 18.09. 10:10 keine Meldung -
Mi, 18.09. 10:00 0.0 l/m2 in 1 Std. -
Mi, 18.09. 9:30 0.0 l/m2 in 1 Std. -
Mi, 18.09. 9:00 0.0 l/m2 in 1 Std. -
Mi, 18.09. 8:30 0.0 l/m2 in 1 Std. -
Mi, 18.09. 8:00 0.0 l/m2 in 1 Std. -
Ortszeit Stärke Spitze Richtung
km/h Bft. km/h Grad Sektor
Mi, 18.09. 8:00 4 1 22 170° S
Mi, 18.09. 2:00 9 2 33 330° NW
Di, 17.09. 20:00 15 3 46 300° NW
Di, 17.09. 14:00 22 4 43 250° W
Di, 17.09. 8:00 7 2 18 10° N
Di, 17.09. 2:00 11 2 29 40° NO
Mo, 16.09. 20:00 7 2 22 300° NW
Mo, 16.09. 14:00 14 3 22 180° S
Ortszeit Stärke Spitze Richtung
km/h Bft. km/h Grad Sektor
Mi, 18.09. 11:00 9 2 17 340° N
Mi, 18.09. 10:50 9 2 - 340° N
Mi, 18.09. 10:40 4 1 - 330° NW
Mi, 18.09. 10:30 4 1 7 250° W
Mi, 18.09. 10:20 4 1 - 250° W
Mi, 18.09. 10:10 4 1 - 150° SO
Mi, 18.09. 10:00 4 1 11 200° S
Mi, 18.09. 9:30 7 2 11 160° S
Mi, 18.09. 9:00 6 1 7 160° S
Mi, 18.09. 8:30 4 1 7 160° S
Mi, 18.09. 8:00 4 1 7 170° S
Ortszeit Untergrenze Bedeckung Gattung
total tief tief mittel hoch
Mi, 18.09. 8:00 - 0/8 0/8 - - -
Mi, 18.09. 2:00 - 0/8 0/8 - - -
Di, 17.09. 20:00 1800 m 8/8 6/8 - - -
Di, 17.09. 14:00 9000 m 8/8 0/8 - - -
Di, 17.09. 8:00 900 m 8/8 8/8 - - -
Di, 17.09. 2:00 450 m 8/8 8/8 - - -
Mo, 16.09. 20:00 2400 m 8/8 8/8 - - -
Mo, 16.09. 14:00 3600 m 8/8 8/8 - - -
Ortszeit Bedeckungsgrad in Achtel und Wolkenuntergrenze
Mi, 18.09. 11:00 7(990m)
Mi, 18.09. 10:50 7(990m)
Mi, 18.09. 10:40 5(1020m)
Mi, 18.09. 10:30 1(9000m) 2(9000m)
Mi, 18.09. 10:20 1(9000m) 2(12000m)
Mi, 18.09. 10:10 2(9000m) 4(12000m)
Mi, 18.09. 10:00 4(12000m)
Mi, 18.09. 9:30 5(12000m)
Mi, 18.09. 9:00 keine Wolken
Mi, 18.09. 8:30 keine Wolken
Mi, 18.09. 8:00 keine Wolken
Ortszeit Luftdruck NN (hPa) Tendenz (hPa in 3 Std.)
Mi, 18.09. 8:00 1026 + 1,4
Mi, 18.09. 2:00 1024 + 1,8
Di, 17.09. 20:00 1019 + 1,1
Di, 17.09. 14:00 1018 - 1,1
Di, 17.09. 8:00 1020 + 0,8
Di, 17.09. 2:00 1019 + 0,3
Mo, 16.09. 20:00 1018 0,0
Mo, 16.09. 14:00 1018 - 1,4
Ortszeit Luftdruck NN (hPa) Tendenz (hPa in 3 Std.)
Mi, 18.09. 11:00 1026 + 0,9
Mi, 18.09. 10:50 1026 keine Meldung
Mi, 18.09. 10:40 1026 keine Meldung
Mi, 18.09. 10:30 1026 + 1,2
Mi, 18.09. 10:20 1026 keine Meldung
Mi, 18.09. 10:10 1026 keine Meldung
Mi, 18.09. 10:00 1026 + 1,3
Mi, 18.09. 9:30 1027 + 1,5
Mi, 18.09. 9:00 1027 + 1,4
Mi, 18.09. 8:30 1027 + 1,4
Mi, 18.09. 8:00 1026 + 1,4
Ortszeit Schneehöhe (cm)
Mi, 18.09. 8:00 -
Mi, 18.09. 2:00 -
Di, 17.09. 20:00 -
Di, 17.09. 14:00 -
Di, 17.09. 8:00 -
Di, 17.09. 2:00 -
Mo, 16.09. 20:00 -
Mo, 16.09. 14:00 -
Ortszeit Schneehöhe (cm)
Mi, 18.09. 11:00 -
Mi, 18.09. 10:50 -
Mi, 18.09. 10:40 -
Mi, 18.09. 10:30 -
Mi, 18.09. 10:20 -
Mi, 18.09. 10:10 -
Mi, 18.09. 10:00 -
Mi, 18.09. 9:30 -
Mi, 18.09. 9:00 -
Mi, 18.09. 8:30 -
Mi, 18.09. 8:00 -
Link zu dieser Seite / Seite empfehlen

Das Wetter in ...